• In Netherlands
  • List of Countries
  • For 7 days
  • Water Temperature
  • Satellite Maps
  • Weather Map
  • Weather Widgets
  • user-avatar
    Login

    Hourly Weather Punta Gorda

    Today, 21 January, Saturday

    Time Temperature Precipitation Wind Pressure Humidity
    00:00 +23°C° 0 mm 1 mps 758 mmHg 94%
    01:00 +23°C° 0 mm 1 mps 758 mmHg 94%
    02:00 +23°C° 0 mm 1 mps 758 mmHg 94%
    03:00 +22°C° 0 mm 1 mps 758 mmHg 94%
    04:00 +22°C° 0 mm 1 mps 758 mmHg 94%
    05:00 +21°C° 0 mm 1 mps 758 mmHg 94%
    06:00 +21°C° 0 mm 1 mps 758 mmHg 94%
    07:00 +23°C° 0 mm 1 mps 759 mmHg 83%
    08:00 +26°C° 0 mm 1 mps 759 mmHg 72%
    09:00 +29°C° 0 mm 1 mps 759 mmHg 61%
    10:00 +31°C° 0 mm 1 mps 759 mmHg 53%
    11:00 +32°C° 0 mm 1 mps 758 mmHg 45%
    12:00 +34°C° 0 mm 1 mps 758 mmHg 37%
    13:00 +36°C° 0 mm 2 mps 757 mmHg 35%
    14:00 +36°C° 0 mm 2 mps 756 mmHg 33%
    15:00 +37°C° 0 mm 2 mps 755 mmHg 32%
    16:00 +32°C° 0 mm 2 mps 755 mmHg 44%
    17:00 +29°C° 0 mm 2 mps 755 mmHg 56%
    18:00 +26°C° 0 mm 2 mps 755 mmHg 69%
    19:00 +25°C° 0 mm 2 mps 756 mmHg 74%
    20:00 +23°C° 0 mm 2 mps 756 mmHg 80%
    21:00 +21°C° 0 mm 2 mps 757 mmHg 86%
    22:00 +22°C° 0 mm 1 mps 757 mmHg 87%
    23:00 +22°C° 0 mm 1 mps 757 mmHg 89%

    Tomorrow, 22 January, Sunday

    Time Temperature Precipitation Wind Pressure Humidity
    00:00 +20°C° 0 mm 0 mps 757 mmHg 90%
    01:00 +21°C° 0 mm 1 mps 757 mmHg 90%
    02:00 +21°C° 0 mm 1 mps 757 mmHg 90%
    03:00 +21°C° 0 mm 1 mps 756 mmHg 90%
    04:00 +21°C° 0 mm 1 mps 757 mmHg 90%
    05:00 +21°C° 0 mm 1 mps 757 mmHg 90%
    06:00 +21°C° 0 mm 1 mps 757 mmHg 90%
    07:00 +24°C° 0 mm 1 mps 757 mmHg 79%
    08:00 +26°C° 0 mm 1 mps 758 mmHg 68%
    09:00 +29°C° 0 mm 1 mps 758 mmHg 58%
    10:00 +32°C° 0 mm 1 mps 758 mmHg 51%
    11:00 +34°C° 0 mm 1 mps 757 mmHg 44%
    12:00 +36°C° 0 mm 1 mps 757 mmHg 38%
    13:00 +37°C° 0 mm 1 mps 756 mmHg 36%
    14:00 +37°C° 0 mm 1 mps 755 mmHg 35%
    15:00 +37°C° 0 mm 1 mps 755 mmHg 33%
    16:00 +33°C° 0 mm 1 mps 755 mmHg 47%
    17:00 +30°C° 0 mm 1 mps 755 mmHg 60%
    18:00 +26°C° 0 mm 1 mps 756 mmHg 73%
    19:00 +25°C° 0 mm 1 mps 756 mmHg 76%
    20:00 +24°C° 0 mm 1 mps 757 mmHg 79%
    21:00 +23°C° 0 mm 1 mps 758 mmHg 82%
    22:00 +24°C° 0 mm 1 mps 758 mmHg 76%
    23:00 +25°C° 0 mm 1 mps 758 mmHg 70%

    Day after tomorrow, 23 January, Monday

    Time Temperature Precipitation Wind Pressure Humidity
    00:00 +26°C° 0 mm 2 mps 759 mmHg 64%
    01:00 +26°C° 0 mm 2 mps 759 mmHg 66%
    02:00 +26°C° 0 mm 2 mps 759 mmHg 67%
    03:00 +26°C° 0 mm 3 mps 759 mmHg 69%
    04:00 +25°C° 0 mm 2 mps 760 mmHg 75%
    05:00 +25°C° 0 mm 2 mps 760 mmHg 80%
    06:00 +24°C° 0 mm 2 mps 761 mmHg 86%
    07:00 +25°C° 0.1 mm 2 mps 761 mmHg 82%
    08:00 +26°C° 0.1 mm 2 mps 762 mmHg 79%
    09:00 +27°C° 0.1 mm 3 mps 763 mmHg 75%
    10:00 +29°C° 0.1 mm 2 mps 763 mmHg 66%
    11:00 +30°C° 0.1 mm 2 mps 762 mmHg 56%
    12:00 +31°C° 0.1 mm 2 mps 762 mmHg 46%
    13:00 +32°C° 0 mm 2 mps 761 mmHg 42%
    14:00 +32°C° 0 mm 2 mps 760 mmHg 39%
    15:00 +34°C° 0 mm 2 mps 759 mmHg 36%
    16:00 +30°C° 0 mm 2 mps 760 mmHg 45%
    17:00 +28°C° 0 mm 2 mps 760 mmHg 54%
    18:00 +26°C° 0 mm 2 mps 760 mmHg 63%
    19:00 +25°C° 0 mm 2 mps 761 mmHg 67%
    20:00 +24°C° 0 mm 2 mps 761 mmHg 71%
    21:00 +21°C° 0 mm 2 mps 762 mmHg 74%
    22:00 +22°C° 0 mm 1 mps 762 mmHg 75%
    23:00 +22°C° 0 mm 1 mps 762 mmHg 77%

    24 January, Tuesday

    Time Temperature Precipitation Wind Pressure Humidity
    00:00 +21°C° 0 mm 1 mps 762 mmHg 78%
    01:00 +21°C° 0 mm 1 mps 761 mmHg 77%
    02:00 +20°C° 0 mm 1 mps 761 mmHg 76%
    03:00 +20°C° 0 mm 1 mps 761 mmHg 76%
    04:00 +20°C° 0 mm 1 mps 761 mmHg 76%
    05:00 +19°C° 0 mm 1 mps 761 mmHg 77%
    06:00 +19°C° 0 mm 1 mps 761 mmHg 78%
    07:00 +22°C° 0 mm 1 mps 762 mmHg 70%
    08:00 +24°C° 0 mm 1 mps 762 mmHg 62%
    09:00 +27°C° 0 mm 1 mps 762 mmHg 53%
    10:00 +28°C° 0 mm 1 mps 762 mmHg 51%
    11:00 +29°C° 0 mm 1 mps 761 mmHg 48%
    12:00 +31°C° 0 mm 2 mps 760 mmHg 45%
    13:00 +31°C° 0 mm 2 mps 759 mmHg 46%
    14:00 +31°C° 0 mm 2 mps 758 mmHg 47%
    15:00 +31°C° 0 mm 3 mps 757 mmHg 49%
    16:00 +29°C° 0 mm 3 mps 758 mmHg 58%
    17:00 +27°C° 0 mm 3 mps 758 mmHg 68%
    18:00 +25°C° 0 mm 3 mps 759 mmHg 78%
    19:00 +24°C° 0 mm 3 mps 759 mmHg 82%
    20:00 +23°C° 0 mm 2 mps 760 mmHg 86%
    21:00 +23°C° 0 mm 2 mps 760 mmHg 90%
    22:00 +23°C° 0 mm 2 mps 760 mmHg 91%
    23:00 +23°C° 0 mm 2 mps 760 mmHg 91%

    25 January, Wednesday

    Time Temperature Precipitation Wind Pressure Humidity
    00:00 +21°C° 0 mm 2 mps 760 mmHg 91%
    01:00 +21°C° 0 mm 2 mps 760 mmHg 92%
    02:00 +21°C° 0 mm 2 mps 759 mmHg 93%
    03:00 +22°C° 0 mm 1 mps 759 mmHg 94%
    04:00 +22°C° 0 mm 1 mps 759 mmHg 94%
    05:00 +22°C° 0 mm 1 mps 759 mmHg 95%
    06:00 +22°C° 0 mm 1 mps 760 mmHg 96%
    07:00 +24°C° 0 mm 1 mps 760 mmHg 90%
    08:00 +26°C° 0 mm 1 mps 761 mmHg 83%
    09:00 +27°C° 0 mm 1 mps 761 mmHg 76%
    10:00 +29°C° 0 mm 1 mps 761 mmHg 70%
    11:00 +30°C° 0 mm 2 mps 760 mmHg 63%
    12:00 +32°C° 0 mm 2 mps 760 mmHg 56%
    13:00 +32°C° 0 mm 2 mps 759 mmHg 55%
    14:00 +33°C° 0 mm 3 mps 758 mmHg 54%
    15:00 +33°C° 0 mm 3 mps 757 mmHg 53%
    16:00 +30°C° 0 mm 3 mps 758 mmHg 62%
    17:00 +28°C° 0 mm 3 mps 758 mmHg 72%
    18:00 +26°C° 0 mm 3 mps 759 mmHg 81%
    19:00 +25°C° 0 mm 2 mps 759 mmHg 85%
    20:00 +24°C° 0 mm 2 mps 760 mmHg 89%
    21:00 +23°C° 0 mm 2 mps 760 mmHg 94%
    22:00 +21°C° 0 mm 2 mps 760 mmHg 94%
    23:00 +21°C° 0 mm 2 mps 760 mmHg 94%

    26 January, Thursday

    Time Temperature Precipitation Wind Pressure Humidity
    00:00 +22°C° 0 mm 1 mps 760 mmHg 95%
    01:00 +22°C° 0 mm 1 mps 760 mmHg 95%
    02:00 +21°C° 0 mm 1 mps 760 mmHg 95%
    03:00 +21°C° 0 mm 1 mps 759 mmHg 96%
    04:00 +21°C° 0 mm 1 mps 760 mmHg 95%
    05:00 +21°C° 0 mm 1 mps 760 mmHg 95%
    06:00 +19°C° 0 mm 0 mps 761 mmHg 95%
    07:00 +23°C° 0 mm 1 mps 761 mmHg 88%
    08:00 +25°C° 0 mm 1 mps 762 mmHg 81%
    09:00 +27°C° 0 mm 1 mps 762 mmHg 74%
    10:00 +29°C° 0 mm 1 mps 762 mmHg 66%
    11:00 +30°C° 0 mm 1 mps 761 mmHg 58%
    12:00 +32°C° 0 mm 2 mps 761 mmHg 50%
    13:00 +32°C° 0 mm 2 mps 760 mmHg 49%
    14:00 +32°C° 0 mm 2 mps 760 mmHg 49%
    15:00 +33°C° 0 mm 3 mps 759 mmHg 49%
    16:00 +30°C° 0 mm 2 mps 760 mmHg 60%
    17:00 +28°C° 0 mm 2 mps 760 mmHg 72%
    18:00 +25°C° 0 mm 2 mps 761 mmHg 83%
    19:00 +24°C° 0 mm 2 mps 762 mmHg 87%
    20:00 +23°C° 0 mm 2 mps 762 mmHg 91%
    21:00 +21°C° 0 mm 2 mps 763 mmHg 95%
    22:00 +21°C° 0 mm 1 mps 763 mmHg 96%
    23:00 +20°C° 0 mm 1 mps 763 mmHg 97%
    Show more